Tracking 30995 objects as of 5-Jul-2025
HD Live streaming from Space Station
objects crossing your sky now

COSMOS 2523

Track COSMOS 2523 now!
10-day predictions


NORAD ID: 42986
Int'l Code: 2017-037E
Perigee: 546.1 km
Apogee: 640.6 km
Inclination: 97.5 °
Period: 96.4 minutes
Semi major axis: 6964 km
RCS: Unknown
Launch date: June 23, 2017
Source: Commonwealth of Independent States (former USSR) (CIS)
Launch site: PLESETSK MISSILE AND SPACE COMPLEX (PKMTR)
Your satellite tracking list
Your tracking list is empty




NASA's NSSDC Master Catalog

Two Line Element Set (TLE):
1 42986U 17037E   25186.54479800  .00001636  00000-0  15300-3 0  9994
2 42986  97.5189 209.4862 0067848 313.1859  46.3705 14.93763350417181
Source of the keplerian elements: AFSPC